Voltar ao catálogo

COSMOS 1275 DEB

AtivoPO
NORAD 13800·DEBRIS·🇷🇺 Russia

Lançado Jun 4, 1981 de Plesetsk Cosmodrome

Loading…

Próximas Passagens (próximas 24 horas)

TLE

AtualizadoSource: Space-Track

Época: Sep 14, 2026, 20:39 UTC

1 13800U 81053GU  26257.86060906  .00000608  00000-0  64759-3 0  9994
2 13800  83.2190 101.4143 0156136 112.0691 266.2518 13.67302738166321

Acompanhe COSMOS 1275 DEB em tempo real com AllMySat

Download on the App Store